EIN133 EIDW-EINN

Flight info

Callsign EIN133
Flight time N/A
Altitude 14000
Route TECL9/10R PELIG DCT ENOKU DCT DIGAN
Aircraft B742/H-SDFHIRWXY/L

Departure

Time 2026-02-17 13:15
Airport Dublin Airport (EIDW)

Arrival

Time N/A
Airport Shannon Airport (EINN)
Time Latitude Longitude Altitude Speed Heading
2026-02-17 12:49 53.42420 -6.24449 216 ft 0 kts 135°
2026-02-17 12:59 53.42425 -6.24458 216 ft 2 kts 141°
2026-02-17 13:00 53.42438 -6.24470 217 ft 2 kts 161°
2026-02-17 13:00 53.42451 -6.24476 217 ft 2 kts 175°
2026-02-17 13:00 53.42466 -6.24475 217 ft 2 kts 191°
2026-02-17 13:00 53.42480 -6.24468 217 ft 2 kts 206°
2026-02-17 13:01 53.42493 -6.24454 218 ft 2 kts 221°
2026-02-17 13:01 53.42500 -6.24444 218 ft 0 kts 221°
2026-02-17 13:05 53.42499 -6.24446 218 ft 1 kts 221°
2026-02-17 13:05 53.42480 -6.24474 217 ft 4 kts 225°
2026-02-17 13:05 53.42458 -6.24530 217 ft 6 kts 241°
2026-02-17 13:06 53.42435 -6.24603 216 ft 7 kts 242°
2026-02-17 13:06 53.42411 -6.24673 216 ft 7 kts 237°
2026-02-17 13:06 53.42380 -6.24741 215 ft 7 kts 230°
2026-02-17 13:07 53.42395 -6.24878 214 ft 8 kts 325°
2026-02-17 13:07 53.42457 -6.24932 215 ft 10 kts 336°
2026-02-17 13:07 53.42524 -6.24982 215 ft 11 kts 336°
2026-02-17 13:07 53.42601 -6.25037 214 ft 11 kts 337°
2026-02-17 13:08 53.42672 -6.25088 214 ft 10 kts 335°
2026-02-17 13:08 53.42720 -6.25164 214 ft 8 kts 311°
2026-02-17 13:08 53.42756 -6.25235 213 ft 8 kts 298°
2026-02-17 13:08 53.42750 -6.25337 214 ft 10 kts 231°
2026-02-17 13:09 53.42696 -6.25427 214 ft 12 kts 224°
2026-02-17 13:09 53.42631 -6.25538 214 ft 15 kts 226°
2026-02-17 13:09 53.42548 -6.25680 215 ft 18 kts 226°
2026-02-17 13:09 53.42453 -6.25844 217 ft 20 kts 225°
2026-02-17 13:10 53.42356 -6.26008 219 ft 19 kts 225°
2026-02-17 13:10 53.42281 -6.26174 220 ft 16 kts 251°
2026-02-17 13:10 53.42273 -6.26365 222 ft 16 kts 274°
2026-02-17 13:11 53.42294 -6.26769 226 ft 18 kts 275°
2026-02-17 13:11 53.42306 -6.26980 229 ft 18 kts 276°
2026-02-17 13:11 53.42318 -6.27195 231 ft 18 kts 275°
2026-02-17 13:11 53.42330 -6.27413 234 ft 18 kts 275°
2026-02-17 13:12 53.42342 -6.27633 236 ft 19 kts 276°
2026-02-17 13:12 53.42356 -6.27858 238 ft 19 kts 276°
2026-02-17 13:12 53.42368 -6.28092 241 ft 20 kts 275°
2026-02-17 13:12 53.42379 -6.28333 243 ft 21 kts 275°
2026-02-17 13:13 53.42393 -6.28571 245 ft 19 kts 276°
2026-02-17 13:13 53.42406 -6.28793 248 ft 18 kts 276°
2026-02-17 13:13 53.42406 -6.28998 251 ft 16 kts 247°
2026-02-17 13:13 53.42324 -6.29078 251 ft 13 kts 179°
2026-02-17 13:14 53.42249 -6.29038 251 ft 9 kts 119°
2026-02-17 13:14 53.42241 -6.28970 250 ft 0 kts 95°
2026-02-17 13:14 53.42233 -6.28823 248 ft 37 kts 95°
2026-02-17 13:15 53.42118 -6.26722 227 ft 140 kts 95°
2026-02-17 13:15 53.42005 -6.24878 282 ft 171 kts 95°
2026-02-17 13:15 53.41861 -6.22939 859 ft 164 kts 96°
2026-02-17 13:15 53.41734 -6.21092 1459 ft 158 kts 96°
2026-02-17 13:16 53.41596 -6.19324 1948 ft 148 kts 95°
2026-02-17 13:16 53.41475 -6.17661 2134 ft 145 kts 96°
2026-02-17 13:16 53.41358 -6.15963 2169 ft 150 kts 96°
2026-02-17 13:16 53.41244 -6.14151 2095 ft 166 kts 96°
2026-02-17 13:17 53.41114 -6.12094 1977 ft 184 kts 96°
2026-02-17 13:17 53.40962 -6.09943 2138 ft 190 kts 105°
2026-02-17 13:17 53.40213 -6.08128 2155 ft 205 kts 146°
2026-02-17 13:17 53.38797 -6.07459 2140 ft 225 kts 178°
2026-02-17 13:18 53.37265 -6.08179 2298 ft 234 kts 206°
2026-02-17 13:18 53.35866 -6.09534 2650 ft 234 kts 208°
2026-02-17 13:18 53.34602 -6.11216 2934 ft 238 kts 234°
2026-02-17 13:19 53.34138 -6.16782 3084 ft 262 kts 270°
2026-02-17 13:19 53.33997 -6.19909 3113 ft 277 kts 261°
2026-02-17 13:19 53.33676 -6.23084 3531 ft 278 kts 258°
2026-02-17 13:19 53.33310 -6.26254 4092 ft 276 kts 258°
2026-02-17 13:20 53.32935 -6.29399 4552 ft 278 kts 258°
2026-02-17 13:20 53.32556 -6.32557 5045 ft 278 kts 257°
2026-02-17 13:20 53.32175 -6.35704 5568 ft 277 kts 258°
2026-02-17 13:20 53.31791 -6.38890 5988 ft 280 kts 258°
2026-02-17 13:21 53.31408 -6.42049 6446 ft 280 kts 258°
2026-02-17 13:21 53.31023 -6.45218 6931 ft 280 kts 258°
2026-02-17 13:21 53.30635 -6.48406 7351 ft 282 kts 258°
2026-02-17 13:21 53.30242 -6.51622 7749 ft 284 kts 258°
2026-02-17 13:22 53.29848 -6.54845 8204 ft 285 kts 258°
2026-02-17 13:22 53.29451 -6.58087 8605 ft 288 kts 258°
2026-02-17 13:22 53.29044 -6.61407 8996 ft 291 kts 258°
2026-02-17 13:23 53.28233 -6.67980 9883 ft 292 kts 257°